User: anonymous   Login
Location: The Jewett Observatory
(46.7288°N, 117.1525°W)
Time: 14:26:11
(UTC-07:00)
Language:

Cosmos 1633 - Orbit

View from above orbital plane
View from above orbital plane
View from above satellite
View from above satellite

Ground track
Ground track

The orbit data is extracted from the following two-line orbital elements,

1 15592U 85020A   15238.77536765  .00002938  00000-0  11755-3 0  9996
2 15592 082.5370 259.3943 0014703 353.9286 125.1509 15.24581838663525
Epoch (UTC): 26 August 2015 18:36:31
Eccentricity: 0.0014703
inclination: 82.5370°
perigee height: 482 km
apogee height: 502 km
right ascension of ascending node: 259.3943°
argument of perigee: 353.9286°
revolutions per day: 15.24581838
mean anomaly at epoch: 125.1509°
orbit number at epoch: 66352

The dashed part of the orbit path shows where the satellite is in the earth's shadow,  

DLR